Location: Long Geng
(2.6167°N, 114.1333°E)
Time: 13:51:43
(UTC+00:00)

Skynet4D Del rocket - Pass Details

Date: 14 May 2021
Orbit: 763 x 1291 km, 26.9° (Epoch: 15 June)

Event Time Altitude Azimuth Distance (km) Brightness Sun altitude
Rises 11:58:55 0° 247° (WSW) 3,211 7.4 -22.4°
Reaches altitude 10° 12:01:21 10° 250° (WSW) 2,297 6.6 -23.0°
Maximum altitude 12:06:41 66° 332° (NNW) 866 3.8 -24.2°
Enters shadow 12:09:06 34° 43° (NE) 1,317 4.5 -24.8°
